Location: ??
(34.7707°N, 135.6540°E)
Time: 04:11:56
(UTC+00:00)

FENGYUN 3A - Pass Details

Date: 09 April 2020
Orbit: 823 x 836 km, 98.4° (Epoch: 05 June)

Event Time Altitude Azimuth Distance (km) Brightness Sun altitude
Rises 19:40:21 0° 17° (NNE) 3,372 7.4 -11.2°
Reaches altitude 10° 19:42:46 10° 21° (NNE) 2,433 6.7 -10.7°
Maximum altitude 19:48:04 59° 101° (E) 950 4.3 -9.7°
Drops below altitude 10° 19:53:20 10° 180° (S) 2,413 5.9 -8.6°
Sets 19:55:43 0° 184° (S) 3,342 6.6 -8.2°
